TimeEST,TemperatureF,Dew PointF,Humidity,Sea Level PressureIn,VisibilityMPH,Wind Direction,Wind SpeedMPH,Gust SpeedMPH,PrecipitationIn,Events,Conditions,WindDirDegrees,DateUTC
12:53 AM,37.0,33.1,86,30.36,8.0,Calm,Calm,-,N/A,,Clear,0,2013-01-09 05:53:00
1:53 AM,36.0,33.1,89,30.37,7.0,Calm,Calm,-,N/A,,Clear,0,2013-01-09 06:53:00
2:15 AM,30.2,28.4,93,30.36,2.0,Calm,Calm,-,N/A,,Clear,0,2013-01-09 07:15:00
2:30 AM,30.2,28.4,93,30.37,0.2,Calm,Calm,-,N/A,Fog,Light Freezing Fog,0,2013-01-09 07:30:00
2:53 AM,30.0,28.9,96,30.37,0.2,Calm,Calm,-,N/A,Fog,Light Freezing Fog,0,2013-01-09 07:53:00
3:14 AM,28.4,26.6,93,30.38,1.2,Calm,Calm,-,N/A,,Partly Cloudy,0,2013-01-09 08:14:00
3:50 AM,26.6,26.6,100,30.37,2.0,Calm,Calm,-,N/A,,Clear,0,2013-01-09 08:50:00
3:53 AM,27.0,26.1,96,30.37,1.8,Calm,Calm,-,N/A,,Clear,0,2013-01-09 08:53:00
4:23 AM,28.4,26.6,93,30.36,2.0,Calm,Calm,-,N/A,,Clear,0,2013-01-09 09:23:00
4:38 AM,28.4,26.6,93,30.36,1.0,Calm,Calm,-,N/A,,Clear,0,2013-01-09 09:38:00
4:53 AM,27.0,27.0,100,30.35,0.8,Calm,Calm,-,N/A,,Clear,0,2013-01-09 09:53:00
5:11 AM,26.6,24.8,93,30.35,0.2,Calm,Calm,-,N/A,Fog,Light Freezing Fog,0,2013-01-09 10:11:00
5:19 AM,28.4,26.6,93,30.35,1.0,Calm,Calm,-,N/A,,Clear,0,2013-01-09 10:19:00
5:33 AM,26.6,24.8,93,30.35,2.0,Calm,Calm,-,N/A,,Clear,0,2013-01-09 10:33:00
5:53 AM,27.0,25.0,92,30.35,2.0,Calm,Calm,-,N/A,,Clear,0,2013-01-09 10:53:00
6:05 AM,28.4,26.6,93,30.36,3.0,Calm,Calm,-,N/A,,Clear,0,2013-01-09 11:05:00
6:30 AM,28.4,26.6,93,30.37,2.5,Calm,Calm,-,N/A,,Clear,0,2013-01-09 11:30:00
6:51 AM,28.4,26.6,93,30.38,3.0,Calm,Calm,-,N/A,,Clear,0,2013-01-09 11:51:00
6:53 AM,28.0,27.0,96,30.38,4.0,Calm,Calm,-,N/A,,Clear,0,2013-01-09 11:53:00
7:26 AM,28.4,28.4,100,30.38,2.5,Calm,Calm,-,N/A,,Clear,0,2013-01-09 12:26:00
7:53 AM,28.9,28.9,100,30.39,1.2,Calm,Calm,-,N/A,,Clear,0,2013-01-09 12:53:00
8:19 AM,32.0,32.0,100,30.38,2.5,Calm,Calm,-,N/A,,Clear,0,2013-01-09 13:19:00
8:34 AM,32.0,32.0,100,30.38,1.8,Calm,Calm,-,N/A,,Clear,0,2013-01-09 13:34:00
8:48 AM,32.0,30.2,93,30.37,2.5,Calm,Calm,-,N/A,,Clear,0,2013-01-09 13:48:00
8:53 AM,33.1,32.0,96,30.38,3.0,Calm,Calm,-,N/A,,Clear,0,2013-01-09 13:53:00
9:00 AM,33.8,33.8,100,30.38,2.5,Calm,Calm,-,N/A,,Clear,0,2013-01-09 14:00:00
9:13 AM,35.6,35.6,100,30.38,4.0,Calm,Calm,-,N/A,,Clear,0,2013-01-09 14:13:00
9:53 AM,39.0,33.1,79,30.38,8.0,SSE,4.6,-,N/A,,Clear,150,2013-01-09 14:53:00
10:53 AM,41.0,34.0,76,30.35,8.0,South,4.6,-,N/A,,Partly Cloudy,170,2013-01-09 15:53:00
11:53 AM,43.0,35.1,74,30.29,8.0,South,6.9,-,N/A,,Mostly Cloudy,180,2013-01-09 16:53:00
12:53 PM,42.1,36.0,79,30.22,7.0,South,9.2,-,N/A,,Clear,170,2013-01-09 17:53:00
1:53 PM,44.1,35.1,71,30.22,7.0,Variable,5.8,-,N/A,,Clear,0,2013-01-09 18:53:00
2:53 PM,44.1,36.0,73,30.19,7.0,South,4.6,-,N/A,,Partly Cloudy,190,2013-01-09 19:53:00
3:53 PM,44.1,37.0,76,30.17,6.0,SSW,5.8,-,N/A,,Haze,210,2013-01-09 20:53:00
4:53 PM,43.0,37.9,82,30.05,6.0,SSE,12.7,-,0.00,Rain,Light Rain,160,2013-01-09 21:53:00
5:53 PM,45.0,37.9,76,30.08,10.0,SSW,10.4,-,0.00,,Mostly Cloudy,210,2013-01-09 22:53:00
6:53 PM,45.0,39.0,80,30.07,10.0,Variable,6.9,21.9,N/A,,Partly Cloudy,0,2013-01-09 23:53:00
7:53 PM,45.0,37.9,76,30.06,10.0,WSW,9.2,24.2,N/A,,Clear,250,2013-01-10 00:53:00
8:53 PM,45.0,37.0,74,30.08,10.0,West,12.7,18.4,N/A,,Clear,260,2013-01-10 01:53:00
9:53 PM,45.0,36.0,71,30.06,10.0,West,9.2,19.6,N/A,,Clear,260,2013-01-10 02:53:00
10:53 PM,44.1,34.0,68,30.09,10.0,West,8.1,-,N/A,,Clear,260,2013-01-10 03:53:00
11:53 PM,45.0,33.1,63,30.11,10.0,West,8.1,16.1,N/A,,Clear,280,2013-01-10 04:53:00